• In Russia
  • List of Countries
  • For 7 days
  • Water Temperature
  • Weather Map
  • Weather Widgets
  • user-avatar
    Login

    Hourly Weather Ibigs

    Today, 22 January, Wednesday

    Time Temperature Precipitation Wind Pressure Humidity
    00:00 +21°C° 0.5 mm 1 mps 649 mmHg 87%
    01:00 +21°C° 0.5 mm 1 mps 648 mmHg 87%
    02:00 +21°C° 0.4 mm 1 mps 648 mmHg 88%
    03:00 +20°C° 0.4 mm 1 mps 648 mmHg 89%
    04:00 +20°C° 0.4 mm 1 mps 647 mmHg 90%
    05:00 +20°C° 0.5 mm 1 mps 648 mmHg 89%
    06:00 +20°C° 0.5 mm 1 mps 648 mmHg 89%
    07:00 +21°C° 0.5 mm 1 mps 649 mmHg 89%
    08:00 +21°C° 1.1 mm 1 mps 650 mmHg 89%
    09:00 +22°C° 1.1 mm 1 mps 650 mmHg 88%
    10:00 +22°C° 1.1 mm 1 mps 651 mmHg 87%
    11:00 +23°C° 1.2 mm 1 mps 650 mmHg 85%
    12:00 +23°C° 1.2 mm 2 mps 650 mmHg 83%
    13:00 +24°C° 1.2 mm 2 mps 649 mmHg 81%
    14:00 +24°C° 0.3 mm 2 mps 649 mmHg 79%
    15:00 +24°C° 0.3 mm 2 mps 648 mmHg 78%
    16:00 +24°C° 0.3 mm 1 mps 648 mmHg 76%
    17:00 +23°C° 0.2 mm 1 mps 648 mmHg 79%
    18:00 +22°C° 0.2 mm 1 mps 648 mmHg 82%
    19:00 +22°C° 0.2 mm 1 mps 648 mmHg 84%
    20:00 +21°C° 0 mm 1 mps 648 mmHg 84%
    21:00 +20°C° 0 mm 1 mps 649 mmHg 84%
    22:00 +19°C° 0 mm 2 mps 649 mmHg 83%
    23:00 +19°C° 0 mm 2 mps 649 mmHg 83%

    Tomorrow, 23 January, Thursday

    Time Temperature Precipitation Wind Pressure Humidity
    00:00 +19°C° 0 mm 1 mps 649 mmHg 83%
    01:00 +19°C° 0 mm 1 mps 648 mmHg 83%
    02:00 +19°C° 0 mm 1 mps 648 mmHg 82%
    03:00 +19°C° 0 mm 1 mps 648 mmHg 82%
    04:00 +19°C° 0 mm 1 mps 647 mmHg 81%
    05:00 +19°C° 0 mm 1 mps 648 mmHg 80%
    06:00 +20°C° 0 mm 1 mps 648 mmHg 80%
    07:00 +20°C° 0 mm 1 mps 649 mmHg 79%
    08:00 +22°C° 0 mm 1 mps 649 mmHg 75%
    09:00 +24°C° 0 mm 2 mps 650 mmHg 71%
    10:00 +25°C° 0 mm 2 mps 650 mmHg 67%
    11:00 +26°C° 0.3 mm 2 mps 650 mmHg 68%
    12:00 +26°C° 0.3 mm 2 mps 649 mmHg 69%
    13:00 +26°C° 0.3 mm 2 mps 649 mmHg 71%
    14:00 +26°C° 0.6 mm 2 mps 648 mmHg 73%
    15:00 +26°C° 0.6 mm 2 mps 647 mmHg 75%
    16:00 +25°C° 0.6 mm 2 mps 647 mmHg 77%
    17:00 +24°C° 0.4 mm 1 mps 647 mmHg 81%
    18:00 +23°C° 0.4 mm 1 mps 647 mmHg 84%
    19:00 +22°C° 0.4 mm 1 mps 647 mmHg 87%
    20:00 +21°C° 0.2 mm 1 mps 648 mmHg 87%
    21:00 +20°C° 0.2 mm 2 mps 648 mmHg 88%
    22:00 +19°C° 0.2 mm 2 mps 649 mmHg 88%
    23:00 +19°C° 0.2 mm 2 mps 649 mmHg 88%

    Day after tomorrow, 24 January, Friday

    Time Temperature Precipitation Wind Pressure Humidity
    00:00 +20°C° 0.2 mm 1 mps 648 mmHg 88%
    01:00 +20°C° 0.2 mm 1 mps 648 mmHg 88%
    02:00 +20°C° 0.3 mm 1 mps 648 mmHg 89%
    03:00 +20°C° 0.3 mm 1 mps 648 mmHg 89%
    04:00 +19°C° 0.3 mm 1 mps 647 mmHg 89%
    05:00 +20°C° 0.2 mm 1 mps 648 mmHg 89%
    06:00 +20°C° 0.2 mm 1 mps 648 mmHg 88%
    07:00 +18°C° 0.2 mm 0 mps 649 mmHg 88%
    08:00 +22°C° 0.1 mm 1 mps 649 mmHg 83%
    09:00 +23°C° 0.1 mm 1 mps 650 mmHg 78%
    10:00 +25°C° 0.1 mm 2 mps 651 mmHg 73%
    11:00 +25°C° 0.3 mm 2 mps 650 mmHg 73%
    12:00 +26°C° 0.3 mm 1 mps 650 mmHg 72%
    13:00 +26°C° 0.3 mm 1 mps 649 mmHg 71%
    14:00 +26°C° 0.5 mm 1 mps 648 mmHg 73%
    15:00 +26°C° 0.5 mm 1 mps 648 mmHg 75%
    16:00 +25°C° 0.5 mm 1 mps 647 mmHg 77%
    17:00 +24°C° 0.5 mm 1 mps 647 mmHg 81%
    18:00 +23°C° 0.5 mm 1 mps 648 mmHg 85%
    19:00 +22°C° 0.5 mm 1 mps 648 mmHg 88%
    20:00 +22°C° 0.7 mm 1 mps 648 mmHg 89%
    21:00 +21°C° 0.7 mm 1 mps 649 mmHg 89%
    22:00 +21°C° 0.7 mm 1 mps 649 mmHg 89%
    23:00 +21°C° 0.5 mm 1 mps 649 mmHg 89%

    25 January, Saturday

    Time Temperature Precipitation Wind Pressure Humidity
    00:00 +21°C° 0.5 mm 1 mps 649 mmHg 89%
    01:00 +21°C° 0.5 mm 1 mps 649 mmHg 89%
    02:00 +20°C° 0.3 mm 1 mps 648 mmHg 89%
    03:00 +18°C° 0.3 mm 0 mps 648 mmHg 90%
    04:00 +18°C° 0.3 mm 0 mps 648 mmHg 90%
    05:00 +18°C° 0.2 mm 0 mps 648 mmHg 90%
    06:00 +18°C° 0.2 mm 0 mps 649 mmHg 90%
    07:00 +18°C° 0.2 mm 0 mps 649 mmHg 90%
    08:00 +22°C° 0.2 mm 1 mps 650 mmHg 86%
    09:00 +23°C° 0.2 mm 1 mps 650 mmHg 83%
    10:00 +24°C° 0.2 mm 2 mps 651 mmHg 79%
    11:00 +25°C° 0.4 mm 1 mps 650 mmHg 79%
    12:00 +25°C° 0.4 mm 1 mps 649 mmHg 79%
    13:00 +25°C° 0.4 mm 1 mps 649 mmHg 80%
    14:00 +25°C° 0.4 mm 1 mps 648 mmHg 80%
    15:00 +25°C° 0.4 mm 1 mps 648 mmHg 80%
    16:00 +25°C° 0.4 mm 1 mps 647 mmHg 80%
    17:00 +24°C° 0.2 mm 1 mps 648 mmHg 83%
    18:00 +23°C° 0.2 mm 1 mps 648 mmHg 86%
    19:00 +22°C° 0.2 mm 1 mps 648 mmHg 89%
    20:00 +22°C° 0.3 mm 1 mps 648 mmHg 89%
    21:00 +22°C° 0.3 mm 1 mps 649 mmHg 89%
    22:00 +21°C° 0.3 mm 1 mps 649 mmHg 89%
    23:00 +21°C° 0.1 mm 1 mps 649 mmHg 90%

    26 January, Sunday

    Time Temperature Precipitation Wind Pressure Humidity
    00:00 +21°C° 0.1 mm 1 mps 649 mmHg 90%
    01:00 +20°C° 0.1 mm 1 mps 648 mmHg 90%
    02:00 +20°C° 0.2 mm 1 mps 648 mmHg 90%
    03:00 +20°C° 0.2 mm 1 mps 648 mmHg 90%
    04:00 +20°C° 0.2 mm 1 mps 648 mmHg 90%
    05:00 +20°C° 0.1 mm 1 mps 648 mmHg 88%
    06:00 +20°C° 0.1 mm 1 mps 648 mmHg 87%
    07:00 +20°C° 0.1 mm 1 mps 649 mmHg 86%
    08:00 +22°C° 0.1 mm 1 mps 650 mmHg 83%
    09:00 +23°C° 0.1 mm 1 mps 650 mmHg 79%
    10:00 +24°C° 0.1 mm 2 mps 651 mmHg 75%
    11:00 +25°C° 0.4 mm 2 mps 650 mmHg 75%
    12:00 +25°C° 0.4 mm 2 mps 650 mmHg 75%
    13:00 +26°C° 0.4 mm 2 mps 649 mmHg 76%
    14:00 +25°C° 0.5 mm 2 mps 649 mmHg 76%
    15:00 +25°C° 0.5 mm 2 mps 648 mmHg 77%
    16:00 +25°C° 0.5 mm 1 mps 648 mmHg 78%
    17:00 +24°C° 0.6 mm 1 mps 648 mmHg 82%
    18:00 +23°C° 0.6 mm 1 mps 648 mmHg 85%
    19:00 +22°C° 0.6 mm 1 mps 648 mmHg 89%
    20:00 +21°C° 0.5 mm 1 mps 649 mmHg 89%
    21:00 +21°C° 0.5 mm 1 mps 649 mmHg 89%
    22:00 +21°C° 0.5 mm 1 mps 649 mmHg 88%
    23:00 +21°C° 0.3 mm 1 mps 649 mmHg 88%

    27 January, Monday

    Time Temperature Precipitation Wind Pressure Humidity
    00:00 +20°C° 0.3 mm 1 mps 649 mmHg 89%
    01:00 +20°C° 0.3 mm 1 mps 649 mmHg 89%
    02:00 +20°C° 0.3 mm 1 mps 648 mmHg 89%
    03:00 +20°C° 0.3 mm 1 mps 648 mmHg 90%
    04:00 +18°C° 0.3 mm 0 mps 648 mmHg 90%
    05:00 +18°C° 0.1 mm 0 mps 648 mmHg 90%
    06:00 +18°C° 0.1 mm 0 mps 649 mmHg 89%
    07:00 +18°C° 0.1 mm 0 mps 650 mmHg 89%
    08:00 +21°C° 0.2 mm 1 mps 650 mmHg 86%
    09:00 +23°C° 0.2 mm 1 mps 650 mmHg 83%
    10:00 +24°C° 0.2 mm 1 mps 651 mmHg 80%
    11:00 +24°C° 0.5 mm 1 mps 650 mmHg 79%
    12:00 +25°C° 0.5 mm 1 mps 650 mmHg 79%
    13:00 +25°C° 0.5 mm 1 mps 649 mmHg 78%
    14:00 +25°C° 0.8 mm 1 mps 649 mmHg 79%
    15:00 +25°C° 0.8 mm 1 mps 648 mmHg 79%
    16:00 +25°C° 0.8 mm 1 mps 648 mmHg 80%
    17:00 +24°C° 0.4 mm 1 mps 648 mmHg 83%
    18:00 +23°C° 0.4 mm 1 mps 648 mmHg 85%
    19:00 +22°C° 0.4 mm 1 mps 648 mmHg 88%
    20:00 +21°C° 0.5 mm 1 mps 649 mmHg 88%
    21:00 +21°C° 0.5 mm 1 mps 649 mmHg 88%
    22:00 +21°C° 0.5 mm 1 mps 649 mmHg 88%
    23:00 +20°C° 0 mm 1 mps 649 mmHg 87%
    Show more